Weather History for Jacksonville, FL

Change the Weather History Date:

Friday, July 26, 2013

  Actual Average Record
Temperature  
Mean Temperature 82 °F 83 °F  
Max Temperature 91 °F 92 °F 102 °F (1926)
Min Temperature 73 °F 73 °F 67 °F (2000)
Degree Days  
Heating Degree Days 0 0  
Month to date heating degree days 0 0  
Since 1 June heating degree days 0 0  
Since 1 July heating degree days 0 0  
Cooling Degree Days 17 18  
Month to date cooling degree days 404 450  
Year to date cooling degree days 1313 1383  
Since 1 June cooling degree days 877 899  
Growing Degree Days 32 (Base 50)    
Moisture  
Dew Point 74 °F    
Average Humidity 78    
Maximum Humidity 100    
Minimum Humidity 56    
Precipitation  
Precipitation 0.00 in 0.22 in 2.94 in (2002)
Month to date precipitation 7.36 5.54  
Year to date precipitation 29.12 27.55  
Snow  
Snow 0.00 in 0.00 in 0.00 in (2002)
Month to date snowfall 0.0 0.0  
Since 1 June snowfall 0.0 0.0  
Since 1 July snowfall 0.0 0.0  
Snow Depth 0.00 in    
Sea Level Pressure  
Sea Level Pressure 29.99 in    
Wind  
Wind Speed 4 mph (East)    
Max Wind Speed 14 mph    
Max Gust Speed 17 mph    
Visibility 9 miles    
Events      
T = Trace of Precipitation, MM = Missing Value Source: NWS Daily Summary

Daily Weather History Graph

Daily Weather History Graph

Search for Another Location

Airport:

Trip Planner

Search our weather history database for the weather conditions in past years. The results will help you decide how hot, cold, wet, or windy it might be!

Date:

Astronomy

Jul. 26, 2013 Rise Set
Actual Time 6:41 AM EDT 8:24 PM EDT
Civil Twilight 6:14 AM EDT 8:51 PM EDT
Nautical Twilight 5:43 AM EDT 9:22 PM EDT
Astronomical Twilight 5:09 AM EDT 9:56 PM EDT
Moon 11:03 PM EDT (7/26) 10:52 AM EDT (7/26)
Length of Visible Light 14h 36m
Length of Day
13h 43m
Waning Gibbous, 80% of the Moon is Illuminated
Jul 26
Waning Gibbous
Jul 29
Last Quarter
Aug 6
New
Aug 14
First Quarter
Aug 20
Full

Hourly Weather History & Observations

Time (EDT) Temp. Heat Index Dew Point Humidity Pressure Visibility Wind Dir Wind Speed Gust Speed Precip Events Conditions
12:56 AM 75.9 °F - 73.9 °F 94% 29.97 in 6.0 mi SW 3.5 mph - N/A   Scattered Clouds
1:56 AM 75.9 °F - 73.9 °F 94% 29.96 in 8.0 mi Calm Calm - N/A   Partly Cloudy
2:56 AM 75.0 °F - 73.0 °F 94% 29.95 in 9.0 mi Calm Calm - N/A   Partly Cloudy
3:56 AM 75.0 °F - 73.0 °F 94% 29.95 in 8.0 mi Calm Calm - N/A   Partly Cloudy
4:56 AM 73.9 °F - 73.0 °F 97% 29.96 in 7.0 mi SW 3.5 mph - N/A   Partly Cloudy
5:56 AM 73.9 °F - 73.0 °F 97% 29.98 in 7.0 mi Calm Calm - N/A   Partly Cloudy
6:56 AM 73.0 °F - 72.0 °F 96% 29.99 in 6.0 mi Calm Calm - N/A   Mostly Cloudy
7:56 AM 75.9 °F - 73.9 °F 94% 30.00 in 6.0 mi Calm Calm - N/A   Mostly Cloudy
8:56 AM 81.0 °F 87.9 °F 77.0 °F 88% 30.01 in 9.0 mi Calm Calm - N/A   Scattered Clouds
9:56 AM 84.0 °F 92.6 °F 75.9 °F 76% 30.02 in 9.0 mi Calm Calm - N/A   Scattered Clouds
10:56 AM 86.0 °F 93.8 °F 73.9 °F 67% 30.03 in 9.0 mi Calm Calm - N/A   Mostly Cloudy
11:56 AM 88.0 °F 96.5 °F 73.9 °F 63% 30.03 in 10.0 mi Calm Calm - N/A   Mostly Cloudy
12:56 PM 89.1 °F 99.1 °F 75.0 °F 63% 30.03 in 10.0 mi East 3.5 mph - N/A   Mostly Cloudy
1:56 PM 90.0 °F 99.0 °F 73.9 °F 59% 30.01 in 10.0 mi NE 8.1 mph - N/A   Mostly Cloudy
2:56 PM 90.0 °F 96.4 °F 71.1 °F 54% 29.99 in 10.0 mi ENE 6.9 mph - N/A   Scattered Clouds
3:56 PM 89.1 °F 98.0 °F 73.9 °F 61% 29.99 in 10.0 mi East 12.7 mph - N/A   Mostly Cloudy
4:56 PM 84.9 °F 91.4 °F 73.0 °F 67% 29.99 in 10.0 mi ENE 10.4 mph - N/A   Mostly Cloudy
5:56 PM 86.0 °F 93.8 °F 73.9 °F 67% 29.99 in 10.0 mi ENE 12.7 mph - N/A   Mostly Cloudy
6:56 PM 82.9 °F 89.4 °F 73.9 °F 74% 29.98 in 10.0 mi East 9.2 mph - N/A   Mostly Cloudy
7:56 PM 82.0 °F 88.6 °F 75.0 °F 79% 29.99 in 10.0 mi East 12.7 mph - N/A   Mostly Cloudy
8:56 PM 81.0 °F 87.3 °F 75.9 °F 85% 30.00 in 10.0 mi ESE 4.6 mph - N/A   Mostly Cloudy
9:56 PM 80.1 °F 85.4 °F 75.9 °F 87% 30.00 in 9.0 mi East 6.9 mph - N/A   Mostly Cloudy
10:56 PM 79.0 °F - 77.0 °F 94% 30.02 in 8.0 mi South 4.6 mph - N/A   Overcast
11:56 PM 79.0 °F - 75.9 °F 90% 30.02 in 8.0 mi SSE 3.5 mph - N/A   Mostly Cloudy